星链-3829 (STARLINK-3829 )

导读 | 星芒AI

STARLINK-3829 是 SpaceX Starlink 卫星互联网项目中的一颗低轨卫星,属于第 11 批组网发射的“星链”卫星之一。该卫星于 2020 年 11 月 19 日由猎鹰 9 号火箭送入近地轨道,旨在为全球提供高速、低延迟的宽带互联网服务。它运行在约 550 公里的高度,采用先进通信技术,支持全球范围内的网络连接,尤其服务于偏远地区。Starlink 项目计划部署数万颗卫星,构建覆盖全球的卫星互联网系统。

基本信息
目录编号:
52348
目录名称:
STARLINK-3829
国际标识:
2022-045T
轨道中心:
EARTH
卫星名称:
星链-3829
卫星全名:
星链-3829 (STARLINK-3829 )
卫星状态:
在轨 (已飞行1332 天)
发射日期:
2022-04-29 UTC
国别 :
美国 (US)
星等 :
--
轨道信息
数据来源 国际轨道数据 AOE轨道数据
星历时间 2025-12-21T04:58:58+0800
8小时前
查看轨道信息
2025-12-20T20:00:00+0800
17小时前
查看轨道信息
半长轴 6917.882km 6917.844km
偏心率 0.0001417 0.0001406
轨道倾角 53.216° 53.218°
近地点辐角 90.079° 92.569°
升交点赤经 192.935° 194.618°
平近点角 270.036° 33.425°
近地点 538.764km 538.734km
远地点 540.726km 540.68km
周期 95.438分钟 95.437分钟
每日圈数 15.088398 15.088522
详细信息
固有亮度:
5
最大亮度:
2.5
卫星平台:
Starlink v1.5
覆盖范围:
全球
运营商:
太空探索技术公司
运营商所在国:
美国
制造商(研发单位):
太空探索技术公司
制造商所在国:
美国
使用方式:
暂无
卫星简介
星链(Starlink)计划是由太空探索技术公司(SpaceX)提出的一个巨型低轨卫星互联网星座项目,计划在2019年至2024年间在太空搭建由约1.2万颗卫星组成的“星链”网络,其中1584颗将部署在地球上空550千米处的近地轨道,并从2020年开始工作。该卫星仍在工作。
2D轨道图
3D轨道图
轨道高度分析图
轨道倾角分析图
轨道综合分析图
查看轨道综合分析图